Find Starlink 31999

NORAD ID: 60101 Int'l Des: 2024-117 Owner: SPXS Country: US Constellation: starlink operational
LEOCIRCULAR

当前视图

正在加载3D地球...

About Starlink 31999

Starlink 31999 (NORAD 60101) is a starlink constellation satellite (v2 mini) launched Jun 23, 2024 by SPXS of US. It operates in LEO, CIRCULAR orbit with a mass of 730.00 kg.

关于 Starlink 31999

正在加载描述...

即将过境

Passes for default location (London). Set your location on the main map for personalized predictions.

高度历史

Loading altitude history...

两行轨道根数

1 60101U 24117L 26170.58644496 -.00000678 00000-0 -10780-4 0 9998
2 60101 53.1614 284.0859 0001233 80.5744 279.5397 15.30197386112484
Epoch: Jun 19, 2026 • Age: 48 hours

当前状态

高度 479.7 km
速度 7.63 km/s
星下点 47.54°N, 73.29°W
发射日期 Jun 23, 2024
运行时间 1.9 years
类型 internet

技术详情

分类 Payload
质量 730.00 kg
干质量 700.00 kg
总质量 730.00 kg
长度 0.30 m
直径 4.10 m
跨度 29.00 m
形状 Box + pan
制造商 SPXS
平台类型 Starlink V2M
阶段状态 In Orbit
所有者/国家 SPXS/US

Most Searched